Weather in Mansurovo

Russia / Kurgan Oblast     55°00′27″N   62°17′07″E
temp.,
°C
wind,
m/s
gust,
m/s
humid.,
%
clouds,
%
prec.,
mm/h
press.,
hPa
HPBL,
m
26 february, fri
fri2623:00−24w339482 0.0 103020
02:00−26wsw229433 0.0 102919
05:00−27sw229317 0.0 103019
08:00−27s23940 0.0 103019
11:00−24s34860 0.0 1030189
14:00−21s35910 0.0 1029269
17:00−23sse46940 0.0 1029218
20:00−28sse45940 0.0 102976
27 february, sat
sat2723:00−29s44940 0.0 102871
02:00−29sse45940 0.0 102679
05:00−29sse479712 0.0 1026108
08:00−29sse499845 0.0 1024143
11:00−24sse589771 0.0 1022282
14:00−19se61194100 0.1 1019423
17:00−15se61195100 0.4 1016589
20:00−11se61295100 1.1 1014643
28 february, sun
sun2823:00−10se61193100 1.6 1011514
02:00−10se51094100 0.2 1009352
05:00−10se4895100 0.4 1008240
08:00−11ese369699 0.2 1006148
11:00−8ese3594100 0.4 1006303
14:00−6e3494100 0.6 1005338
17:00−6ene3596100 1.3 1006341
20:00−8ne4795100 0.5 1007207
1 march, mon
mon123:00−10nne369696 0.6 1009166
02:00−14nne469789 0.1 1010120
05:00−15nne479692 0.1 1012208
08:00−16nne469698 0.1 1014234
11:00−15nne459494 0.2 1015261
14:00−14nne359399 0.1 1016320
17:00−14nne3494100 0.1 1017269
20:00−18nne239785 0.0 101828
2 march, tue
tue223:00−19n129979 0.1 101920
02:00−19w119777 0.1 101820
05:00−21w229949 0.1 101820
08:00−21wsw23980 0.0 101720
11:00−16sw24943 0.0 1016158
14:00−12ssw359240 0.0 1015295
17:00−12s369566 0.0 1013178
20:00−16ssw459775 0.0 101267